Location: Unspecified
(0.0000°N, 0.0000°E)
Time: 08:49:40
(UTC+00:00)

ISS - Pass Details

Date: 20 May 2021
Orbit: 417 x 422 km, 51.6° (Epoch: 16 June)

Event Time Altitude Azimuth Distance (km) Brightness Sun altitude
Exits shadow 04:25:10 14° 155° (SSE) 1,277 -1.3 -21.4°
Drops below altitude 10° 04:25:43 10° 153° (SSE) 1,501 -0.9 -21.3°
Sets 04:27:50 0° 150° (SSE) 2,367 0.2 -20.8°
